Terminal Aerodrome Forecast
Issued by NWS

Home | Current Version | Previous Version | Text Only | Print | Product List | Glossary Off
Versions: 1 2 3 4 5 6 7 8 9 10 11 12 13

000
FTUS43 KIWX 291120
TAFSBN
TAF
KSBN 291120Z 2912/3012 25007KT P6SM BKN100
     FM291700 30010KT P6SM BKN040
     FM292200 30008KT P6SM SKC=

USA.gov is the U.S. government's official web portal to all federal, state and local government web resources and services.